Regional Weather Roundup
Issued by NWS Austin/San Antonio, TX

Home | Current Version | Previous Version | Text Only | Print | Product List | Glossary On
Versions: 1 2 3 4 5 6 7 8 9 10 11 12 13 14 15 16 17 18 19 20 21 22 23 24 25 26 27 28 29 30 31 32 33 34 35 36 37 38 39 40 41 42 43 44 45 46 47 48 49 50
000
ASUS44 KEWX 201601
RWREWX
SOUTH TEXAS REGIONAL WEATHER ROUNDUP
NATIONAL WEATHER SERVICE AUSTIN/SAN ANTONIO TX
1100 AM CDT FRI OCT 20 2017

NOTE: "FAIR" INDICATED FEW OR NO CLOUDS BELOW 12,000 FEET WITH NO
SIGNIFICANT WEATHER AND/OR OBSTRUCTIONS TO VISIBILITY.

* - THESE STATIONS ARE NOT NWS OR FAA STATIONS...AND ARE NOT SUBJECT
    TO NWS AND FAA QUALITY CONTROL.

TXZ171-172-183>190-201700-
TEXAS HILL COUNTRY AND EDWARDS PLATEAU

CITY           SKY/WX    TMP DP  RH WIND       PRES   REMARKS
JUNCTION       CLOUDY    69  63  81 VRB3      30.07F
*LLANO         CLOUDY    70  66  88 CALM      30.11F
BURNET         CLOUDY    68  66  93 E7        30.09F
*HORSESHOE BAY CLOUDY    68  68 100 E3        30.08F
*KERRVILLE     CLOUDY    69  67  95 SE5       30.09S
*FREDERICKSBRG CLOUDY    68  65  89 S6        30.09S
*ROCKSPRINGS   NOT AVBL
*BOERNE STAGE  CLOUDY    66  64  94 CALM      30.09F
*CASTROVILLE   CLOUDY    70  69  97 E3        30.08S FOG
HONDO          LGT RAIN  71  68  90 E5        30.07F FOG
*UVALDE        CLOUDY    71  66  85 SE5       30.06F
DEL RIO        CLOUDY    71  68  90 SE10      30.02S
LAUGHLIN AFB   CLOUDY    70  64  80 SE12      30.02S
CARRIZO SPRGS  CLOUDY    73  68  83 E7        30.03F
*EAGLE PASS    NOT AVBL
$$

TXZ173-191>194-202-209-217>225-228-201700-
CENTRAL AND SOUTH CENTRAL TEXAS

CITY           SKY/WX    TMP DP  RH WIND       PRES   REMARKS
GEORGETOWN     CLOUDY    71  65  81 VRB3      30.10R
AUSTIN/BERGSTM CLOUDY    69  67  93 NW3       30.07R
AUSTIN/MABRY   CLOUDY    69  67  93 CALM      30.08S
*AUSTIN/EXEC   CLOUDY    70  68  94 CALM      30.08R FOG
*LAGO VISTA    DRIZZLE   68  66  95 CALM      30.09F
SAN MARCOS     CLOUDY    71  67  87 N5        30.07S
NEW BRAUNFELS  CLOUDY    72  67  84 CALM      30.06R FOG
RANDOLPH AFB   CLOUDY    72  66  83 CALM      30.07R
PT SAN ANTONIO CLOUDY    72  67  83 CALM      30.05S
SAN ANTONIO    LGT RAIN  72  66  81 CALM      30.07R
STINSON FIELD  CLOUDY    74  68  81 CALM      30.05S
*LA GRANGE     CLOUDY    77  73  87 SE8       30.03S
*GIDDINGS      PTSUNNY   77  69  76 SE7       30.06S
*GONZALES      CLOUDY    76  74  96 CALM      30.04S
$$

TXZ163>164-176>182-195>201-210>213-226-227-235-201700-
SOUTHEAST TEXAS

CITY           SKY/WX    TMP DP  RH WIND       PRES   REMARKS
COLLEGE STN    CLOUDY    75  69  81 E8        30.07S
*BRYAN         CLOUDY    73  71  93 E6        30.09F
*CALDWELL      CLOUDY    74  68  81 E5        30.07S
*CROCKETT        N/A     73  66  78 SE7G17    30.14S
*BRENHAM       CLOUDY    80  72  78 SE13      30.06S
HUNTSVILLE     CLOUDY    75  68  78 VRB7      30.08F
CONROE         CLOUDY    74  70  87 SE7       30.06F
HOUSTON BUSH   PTSUNNY   78  71  79 E13       30.05F
HOUSTON HOBBY  CLOUDY    80  72  76 E10       30.04F
*HOUSTON SW AP CLOUDY    78  74  85 E6        30.05F THUNDER
PEARLAND       CLOUDY    80  71  74 E10       30.06F
HOUSTON HOOKS  CLOUDY    77  70  79 E8        30.06F
ELLINGTON FLD  PTSUNNY   79  72  78 E12       30.06F
SUGAR LAND     CLOUDY    80  74  81 E10       30.04F
*HOUSTON EXEC  CLOUDY    77  73  88 E9        30.07S
*CLEVELAND MUN RAIN      71  69  94 CALM      30.08F
*WHARTON       PTSUNNY   80  73  79 SE6       30.05S
*COLUMBUS      CLOUDY    77  73  86 SW7       30.06S
*EAGLE LAKE    CLOUDY    80  76  87 SE9       30.05S
$$

TXZ214>216-236>238-201700-
THE UPPER TEXAS COAST

CITY           SKY/WX    TMP DP  RH WIND       PRES   REMARKS
*ORANGE        PTSUNNY   72  69  91 E10       30.11F THUNDER
PORT ARTHUR    CLOUDY    72  67  84 E15       30.07F
GALVESTON      CLOUDY    80  74  81 E10       30.06F
ANGLETON       CLOUDY    81  75  82 E9        30.04F
*BAY CITY      MOSUNNY   83  75  79 NE3       30.03F HX  90
PALACIOS       MOSUNNY   80  74  81 CALM      30.03S
$$

TXZ229>234-239>247-201700-
TEXAS COASTAL BEND AND RIO GRANDE PLAINS

CITY           SKY/WX    TMP DP  RH WIND       PRES   REMARKS
VICTORIA       MOSUNNY   81  73  76 E6        30.04S
*BEEVILLE      NOT AVBL
ROCKPORT       SUNNY     80  73  79 VRB3      30.02S
*PORT ARANSAS  NOT AVBL
*PORT LAVACA   SUNNY     78  73  84 NE3       30.03F
*INGLESIDE     NOT AVBL
CORPUS CHRISTI PTSUNNY   79  74  84 CALM      30.02F
CORPUS NAS     PTSUNNY   82  76  81 NW5       30.01F
*ROBSTOWN      SUNNY     79  72  78 S5        30.03F
ALICE          PTSUNNY   79  71  76 S7        30.02F
KINGSVILLE NAS PTSUNNY   80  74  81 S6        30.02F
COTULLA        CLOUDY    75  67  76 VRB3      30.05F
*FAITH RANCH   CLOUDY    75  70  83 E8        30.03S
LAREDO         CLOUDY    77  69  76 VRB7      30.04F
$$

TXZ248>255-201700-
DEEP SOUTH TEXAS

CITY           SKY/WX    TMP DP  RH WIND       PRES   REMARKS
BROWNSVILLE    SUNNY     85  73  67 SE8       30.01F HX  91
PORT ISABEL    MOSUNNY   83  72  69 E6        30.00F
*SOUTH PADRE   NOT AVBL
HARLINGEN      PTSUNNY   84  74  71 SE9       30.00S HX  91
*HEBBRONVILLE  PTSUNNY   74  69  82 S6        30.06S
MCALLEN        PTSUNNY   83  73  72 SE10      30.01S
*WESLACO       PTSUNNY   83  71  67 SE7       30.00S
FALFURRIAS     MOSUNNY   79  72  79 CALM      30.02F
EDINBURG       MOSUNNY   83  72  70 E8        30.02S
*ZAPATA        MOSUNNY   80  67  66 SE6       30.02F
$$

TXZ213>215-236>238-242>244-246-247-251-254-255-201700-
CMAN STATIONS

STATION/POSITION TIME  TEMP    WIND        PRES    WAVE
                       AIR SEA DIR/SP/G            HT/PER
                 (UTC) (F)     (DEG/KT/KT) (MB)    (FT/S)
$$




USA.gov is the U.S. government's official web portal to all federal, state and local government web resources and services.